All Stations Radar Satellite Rainfall Station Map Enhanced Site
Observations: Wind Gusts Humidity Temperature    
Forecasts: Wind Gusts Humidity Temperature    

Valley Center (907, 908, 909, 1030, 6926) Station Data (Station Map)

Red Flag Warning: No
Fire Weather Zone: 250
SDGE Region: North East
Lat/Lon: 33.236/-117.001

Observations

Time (PDT)Wind Spd/GustTempRHFuel Moisture
10/20 4:10amNNE 1 G 156°100%-
10/20 4:00amESE 1 G 155°100%-
10/20 3:50amE 1 G 255°100%-
10/20 3:40amNNE 1 G 255°100%-
10/20 3:30amNNW 1 G 156°100%-
10/20 3:20amNW 1 G 156°100%-
10/20 3:10amNNE 1 G 255°100%-
10/20 3:00amE 1 G 155°100%-
10/20 2:50amE 1 G 154°100%-
10/20 1:30amNW 1 G 157°100%-
10/20 1:20amNNE 1 G 256°100%-
10/20 1:10amN 1 G 256°100%-
10/20 1:00amNE 1 G 257°100%-
10/20 12:50amN 1 G 157°100%-
10/20 12:40amE 1 G 157°100%-
10/20 12:30amNE 1 G 156°100%-
10/20 12:20amENE 1 G 156°100%-
10/20 12:10amENE 1 G 156°100%-
10/20 12:00amENE 1 G 157°100%-
10/19 11:50pmENE 1 G 157°100%-
10/19 11:40pmENE 1 G 157°100%-
10/19 11:30pmENE 1 G 157°100%-
10/19 11:20pmE 1 G 157°100%-
10/19 11:10pmN 1 G 258°100%-
10/19 11:00pmN 1 G 259°100%-
10/19 10:50pmN 1 G 259°100%-
10/19 10:40pmNNW 1 G 159°100%-
10/19 10:30pmNW 1 G 260°100%-
10/19 10:20pmW 1 G 359°100%-
10/19 10:10pmN 1 G 259°100%-
10/19 10:00pmNNE 1 G 259°100%-
10/19 9:50pmN 1 G 260°100%-
10/19 9:40pmNE 1 G 261°100%-
10/19 9:30pmE 1 G 161°100%-
10/19 9:20pmESE 1 G 161°100%-
10/19 9:10pmE 1 G 161°100%-
10/19 9:00pmNE 1 G 161°100%-
10/19 8:50pmENE 1 G 161°94%-
10/19 8:40pmE 1 G 161°84%-
10/19 8:30pmSE 1 G 162°81%-
10/19 8:20pmSE 1 G 162°78%-
10/19 8:10pmNW 1 G 263°77%-
10/19 8:00pmNW 1 G 263°77%-
10/19 7:50pmNW 1 G 263°77%-
10/19 7:40pmNW 1 G 364°77%-
10/19 7:30pmNW 2 G 364°76%-
10/19 7:20pmWNW 1 G 265°76%-
10/19 7:10pmWNW 1 G 365°76%-
10/19 7:00pmW 1 G 265°76%-
10/19 6:50pmWNW 1 G 265°76%-
10/19 6:40pmNW 1 G 266°75%-
10/19 6:30pmWNW 2 G 466°75%-
10/19 6:20pmWNW 2 G 566°73%-
10/19 6:10pmW 2 G 467°72%-
10/19 6:00pmWNW 3 G 567°71%-
10/19 5:50pmNW 3 G 668°70%-
10/19 5:40pmWNW 4 G 868°69%-
10/19 5:30pmWNW 4 G 869°68%-
10/19 5:20pmWNW 4 G 770°67%-
10/19 5:10pmWNW 4 G 770°65%-
10/19 5:00pmWNW 3 G 770°65%-
10/19 4:50pmWNW 5 G 770°65%-
10/19 4:40pmW 5 G 1071°64%-
10/19 4:30pmWNW 4 G 1071°63%-
10/19 4:20pmWNW 5 G 1071°63%-
10/19 4:10pmW 5 G 972°62%-
10/19 4:00pmWNW 5 G 972°60%-
10/19 3:50pmWNW 6 G 1072°59%-
10/19 3:40pmWNW 5 G 873°58%-
10/19 3:30pmWNW 6 G 1173°58%-
10/19 3:20pmW 6 G 974°56%-
10/19 3:10pmW 5 G 874°56%-
10/19 3:00pmWNW 4 G 874°54%-
10/19 2:50pmWNW 6 G 1075°53%-
10/19 2:40pmWNW 6 G 1174°53%-
10/19 2:30pmW 5 G 1175°51%-
10/19 2:20pmWNW 5 G 975°50%-
10/19 2:10pmNW 6 G 1175°49%-
10/19 2:00pmWNW 4 G 975°46%-
10/19 1:50pmWNW 4 G 975°47%-
10/19 1:40pmNW 4 G 1075°47%-
10/19 1:30pmNW 3 G 1075°47%-
10/19 1:20pmWNW 5 G 1174°48%-
10/19 1:10pmWNW 6 G 1175°48%-
10/19 1:00pmW 4 G 974°49%-
10/19 12:50pmW 5 G 1074°50%-
10/19 12:40pmWSW 3 G 974°49%-
10/19 12:30pmW 4 G 873°52%-
10/19 12:20pmWNW 3 G 873°52%-
10/19 12:10pmW 3 G 872°54%-
10/19 12:00pmWNW 2 G 773°52%-
10/19 11:50amWSW 2 G 771°56%-
10/19 11:40amW 2 G 771°57%-
10/19 11:30amSW 2 G 570°58%-
10/19 11:20amWSW 2 G 570°59%-
10/19 11:10amN 1 G 369°61%-
10/19 11:00amNW 1 G 369°61%-
10/19 10:50amSSW 1 G 468°64%-
10/19 10:40amW 2 G 567°65%-
10/19 10:30amWSW 2 G 667°66%-
10/19 10:20amWSW 2 G 667°66%-
10/19 10:10amN 1 G 367°66%-
10/19 10:00amSSE 2 G 466°70%-
10/19 9:50amSSE 2 G 565°71%-
10/19 9:40amESE 1 G 364°75%-
10/19 9:30amSSE 2 G 664°76%-
10/19 9:20amSSE 2 G 463°84%-
10/19 9:00amSSE 1 G 361°100%-
10/19 8:50amSE 1 G 161°100%-
10/19 8:40amENE 1 G 159°100%-
10/19 8:30amNE 1 G 158°100%-
10/19 8:20amESE 1 G 157°100%-
10/19 8:10amSE 1 G 156°100%-
10/19 8:00amSSE 1 G 156°100%-
10/19 7:50amENE 1 G 156°100%-
10/19 7:40amNNE 1 G 255°100%-
10/19 7:30amNNE 1 G 253°100%-
10/19 7:20amNNE 1 G 253°100%-
10/19 7:10amNNE 1 G 253°100%-
10/19 7:00amNNE 1 G 253°100%-
10/19 6:50amNE 1 G 153°100%-
10/19 6:40amNNE 1 G 153°100%-
10/19 6:30amNNE 2 G 353°100%-
10/19 6:20amNNE 2 G 353°100%-
10/19 6:10amNNE 2 G 253°100%-
10/19 6:00amN 1 G 153°100%-
10/19 5:50amN 1 G 254°100%-
10/19 5:40amN 1 G 254°100%-
10/19 5:30amNNE 1 G 254°100%-
10/19 5:20amNNE 1 G 154°100%-
10/19 5:10amNE 1 G 254°100%-
10/19 5:00amNE 1 G 154°100%-
10/19 4:50amNE 1 G 254°100%-
10/19 4:40amNE 1 G 154°100%-
10/19 4:30amNE 1 G 254°100%-
10/19 4:20amNNE 1 G 254°100%-
10/19 4:10amN 1 G 154°100%-
10/19 4:00amNNE 1 G 154°100%-
10/19 3:50amNNE 1 G 254°100%-
10/19 3:40amNNE 1 G 254°100%-
10/19 3:30amNNE 1 G 254°100%-
10/19 3:20amNNE 1 G 154°100%-
10/19 3:10amNE 1 G 154°100%-
10/19 3:00amNNE 1 G 254°100%-
10/19 2:50amNNE 1 G 255°100%-
10/19 2:40amNNE 2 G 354°100%-
10/19 2:30amNNE 1 G 255°100%-
10/19 2:20amNNE 1 G 255°100%-
10/19 2:10amNNE 1 G 255°100%-
10/19 2:00amNE 1 G 254°100%-
10/19 1:50amNE 1 G 155°100%-
10/19 1:40amENE 1 G 155°100%-
10/19 1:30amNE 1 G 154°100%-
10/19 1:20amNNE 1 G 155°100%-
10/19 1:10amNNE 1 G 255°100%-
10/19 1:00amN 1 G 255°100%-
10/19 12:50amN 1 G 255°100%-
10/19 12:40amNNE 1 G 255°100%-
10/19 12:30amNNE 1 G 155°100%-
10/19 12:20amNNE 1 G 255°100%-
10/19 12:10amN 1 G 156°100%-
10/19 12:00amNNE 1 G 156°100%-
10/18 11:50pmNNE 1 G 155°100%-
10/18 11:40pmNNE 1 G 255°100%-
10/18 11:30pmENE 1 G 156°100%-
10/18 11:20pmNNE 1 G 256°100%-
10/18 11:10pmNNE 1 G 256°100%-
10/18 11:00pmN 1 G 256°100%-
10/18 10:50pmNNE 1 G 156°100%-
10/18 10:40pmNNE 1 G 157°100%-
10/18 10:30pmNNE 1 G 257°100%-
10/18 10:20pmNNE 1 G 257°100%-
10/18 10:10pmN 1 G 157°100%-
10/18 10:00pmN 1 G 157°100%-
10/18 9:50pmNNE 1 G 157°100%-
10/18 9:40pmNE 1 G 158°100%-
10/18 9:30pmNE 1 G 158°100%-
10/18 9:20pmNE 1 G 158°100%-
10/18 9:10pmESE 1 G 158°100%-
10/18 9:00pmENE 1 G 158°100%-
10/18 8:50pmNNE 1 G 159°100%-
10/18 8:40pmNNE 1 G 259°87%-
10/18 8:30pmN 1 G 160°84%-
10/18 8:20pmNNW 1 G 160°82%-
10/18 8:10pmNW 1 G 160°80%-
10/18 8:00pmNNW 1 G 161°78%-
10/18 7:50pmNNW 1 G 262°78%-
10/18 7:40pmWNW 1 G 362°77%-
10/18 7:30pmWNW 1 G 363°76%-
10/18 7:20pmWNW 1 G 263°75%-
10/18 7:10pmW 1 G 363°74%-
10/18 7:00pmW 1 G 363°73%-
10/18 6:50pmW 2 G 464°72%-
10/18 6:40pmW 2 G 464°71%-
10/18 6:30pmW 2 G 565°70%-
10/18 6:20pmWNW 2 G 465°68%-
10/18 6:10pmW 2 G 566°67%-
10/18 6:00pmWNW 3 G 666°66%-
10/18 5:50pmWNW 4 G 667°65%-